Terminal Aerodrome Forecast
Issued by NWS

Home | Current Version | Previous Version | Text Only | Print | Product List | Glossary On
Versions: 1 2 3 4 5 6 7 8 9 10 11 12 13 14 15 16 17 18 19
000
FTUS41 KBTV 301231 AAA
TAFRUT
TAF AMD
KRUT 301231Z 3013/3112 VRB03KT 6SM -SN SCT015 OVC025
      TEMPO 3013/3016 3SM -SN BR BKN015 OVC025
     FM301600 32006KT 6SM -SN BR OVC025
     FM310000 31009G16KT 6SM -SN OVC022
      AMD LTD TO CLD VIS AND WIND=

USA.gov is the U.S. government's official web portal to all federal, state and local government web resources and services.